Baker Lake, Nunavut

2:51 PM CST on February 27, 2017 (GMT -0600)
Baker Lake

Weather History for CYBK - January, 2013

Change the Weather History Date:

Saturday, January 19, 2013

  Actual Average Record
Temperature  
Mean Temperature -30 °F -  
Max Temperature -26 °F -20 °F 19 °F (2009)
Min Temperature -34 °F -32 °F -42 °F (2015)
Degree Days  
Heating Degree Days 95    
Moisture  
Dew Point -37 °F    
Average Humidity 63    
Maximum Humidity 69    
Minimum Humidity 46    
Precipitation  
Precipitation 0.00 in 0.01 in - ()
Sea Level Pressure  
Sea Level Pressure 29.97 in    
Wind  
Wind Speed 18 mph ()    
Max Wind Speed 26 mph    
Max Gust Speed 31 mph    
Visibility 7.4 miles    
Events Snow    
Averages and records for this station are not official NWS values.
T = Trace of Precipitation, MM = Missing Value Source: Averaged Metar Reports

Daily Weather History Graph

Daily Weather History Graph

Search for Another Location

Airport or City:

Trip Planner

Search our weather history database for the weather conditions in past years. The results will help you decide how hot, cold, wet, or windy it might be!

Date:

Astronomy

Jan. 19, 2013 Rise Set
Actual Time 9:42 AM CST 3:28 PM CST
Civil Twilight 8:37 AM CST 4:33 PM CST
Nautical Twilight 7:34 AM CST 5:37 PM CST
Astronomical Twilight 6:36 AM CST 6:34 PM CST
Moon 10:27 AM CST (1/19) 2:39 AM CST (1/19)
Length of Visible Light 7h 56m
Length of Day
5h 46m
First Quarter, 57% of the Moon is Illuminated
Jan 19
First Quarter
Jan 26
Full
Feb 3
Last Quarter
Feb 10
New
Feb 17
First Quarter

Hourly Weather History & Observations

Time (CST) Temp. Windchill Dew Point Humidity Pressure Visibility Wind Dir Wind Speed Gust Speed Precip Events Conditions
12:00 AM -25 °F - -33 °F 49% 29.94 in 1 mi NW 26.5 mph - - Snow Snow
12:00 AM -25.6 °F -56.7 °F -32.8 °F 69% 29.94 in 3.0 mi NW 21.9 mph 31.1 mph N/A Snow Ice Crystals
1:00 AM -25.6 °F -57.3 °F -32.8 °F 69% 29.96 in 3.0 mi NW 23.0 mph 31.1 mph N/A Snow Ice Crystals
2:00 AM -25.6 °F -56.7 °F -34.6 °F 63% 29.97 in 3.0 mi NW 21.9 mph 27.6 mph N/A Snow Ice Crystals
3:00 AM -25.6 °F -52.1 °F -34.6 °F 63% 29.99 in 5.0 mi NW 15.0 mph 21.9 mph N/A Snow Ice Crystals
4:00 AM -27.4 °F -56.1 °F -34.6 °F 69% 29.99 in 3.0 mi NW 17.3 mph 23.0 mph N/A Snow Ice Crystals
5:00 AM -27.4 °F -55.3 °F -34.6 °F 69% 29.99 in 3.0 mi WNW 16.1 mph 23.0 mph N/A Snow Ice Crystals
6:00 AM -27 °F - -35 °F 47% 29.99 in 3 mi WNW 18.4 mph - - Snow Snow
6:00 AM -27.4 °F -55.3 °F -34.6 °F 69% 29.99 in 3.0 mi WNW 16.1 mph 21.9 mph N/A Snow Ice Crystals
7:00 AM -27.4 °F -56.1 °F -36.4 °F 62% 29.99 in 3.0 mi WNW 17.3 mph 23.0 mph N/A Snow Ice Crystals
8:00 AM -27.4 °F -58.4 °F -36.4 °F 62% 29.97 in 3.0 mi WNW 20.7 mph 27.6 mph N/A Snow Ice Crystals
9:00 AM -27.4 °F -58.4 °F -36.4 °F 62% 29.97 in 4.0 mi WNW 20.7 mph - N/A Snow Ice Crystals
10:00 AM -29.2 °F -59.3 °F -36.4 °F 68% 29.97 in 4.0 mi WNW 18.4 mph - N/A Snow Ice Crystals
10:50 AM - - - N/A% - 4.0 mi WNW 21.9 mph - N/A   Ice Crystals
11:00 AM -29.2 °F -60.7 °F -38.2 °F 62% 29.97 in 4.0 mi WNW 20.7 mph - N/A Snow Ice Crystals
12:00 PM -30 °F - -38 °F 46% 29.97 in 5 mi NW 21.9 mph - - Snow Snow
12:00 PM -29.2 °F -61.4 °F -38.2 °F 62% 29.97 in 5.0 mi NW 21.9 mph - N/A Snow Ice Crystals
1:00 PM -31.0 °F -63.8 °F -38.2 °F 68% 29.97 in 6.0 mi WNW 21.9 mph - N/A Snow Ice Crystals
2:00 PM -31.0 °F -59.1 °F -38.2 °F 68% 29.97 in 6.0 mi WNW 15.0 mph - N/A Snow Ice Crystals
3:00 PM -31.0 °F -62.4 °F -38.2 °F 68% 29.97 in 10.0 mi WNW 19.6 mph - N/A Snow Low Drifting Snow
4:00 PM -31.0 °F -63.8 °F -38.2 °F 68% 29.97 in 15.0 mi WNW 21.9 mph - N/A Snow Low Drifting Snow
5:00 PM -31.0 °F -61.6 °F -38.2 °F 68% 29.97 in 15.0 mi WNW 18.4 mph 24.2 mph N/A Snow Low Drifting Snow
6:00 PM -31 °F - -39 °F 47% 29.98 in 15 mi WNW 12.7 mph - - Snow Snow
6:00 PM -31.0 °F -57.1 °F -38.2 °F 68% 29.98 in 15.0 mi WNW 12.7 mph - N/A Snow Low Drifting Snow
7:00 PM -31.0 °F -57.1 °F -40.0 °F 62% 29.97 in 15.0 mi WNW 12.7 mph - N/A Snow Low Drifting Snow
8:00 PM -32.8 °F -62.3 °F -40.0 °F 68% 29.97 in 15.0 mi WNW 16.1 mph - N/A Snow Low Drifting Snow
9:00 PM -32.8 °F -64.0 °F -41.8 °F 62% 29.96 in 15.0 mi West 18.4 mph - N/A Snow Low Drifting Snow
10:00 PM -34.6 °F -66.3 °F -41.8 °F 68% 29.95 in 15.0 mi West 18.4 mph - N/A Snow Low Drifting Snow
11:00 PM -32.8 °F -64.0 °F -41.8 °F 62% 29.93 in 15.0 mi WNW 18.4 mph - N/A Snow Low Drifting Snow